Location: Aulagny
(45.1643°N, 4.3096°E)
Time: 07:54:29
(UTC+00:00)

COBE Rocket - Pass Details

Date: 21 October 2019
Orbit: 680 x 782 km, 97.1° (Epoch: 16 November)

Event Time Altitude Azimuth Distance (km) Brightness Sun altitude
Rises 17:13:22 0° 16° (NNE) 3,271 7.0 -5.2°
Reaches altitude 10° 17:15:48 10° 22° (NNE) 2,331 6.2 -5.6°
Maximum altitude 17:20:48 50° 97° (E) 966 4.2 -6.5°
Drops below altitude 10° 17:25:40 10° 173° (S) 2,263 6.5 -7.3°
Sets 17:27:59 0° 179° (S) 3,167 7.3 -7.7°
